CW6286 Weather Reports


Display with metric or nautical units.
time (UTC)temp
F
wind
direction
speed
MPH
gust
MPH
rain 1hr
in
rain 24hr
in
rain mn
in
humidity
%
barometer
mb
20240621032720 76 123 0.0 0.0 0.00 0.00 0.00 79 1018.8
20240621032216 76 123 0.0 0.0 0.00 0.00 0.00 79 1018.8
20240621031938 76 123 0.0 0.0 0.00 0.00 0.00 79 1018.8
20240621031214 77 123 0.0 0.0 0.00 0.00 0.00 78 1018.8
20240621030713 77 123 0.0 0.0 0.00 0.00 0.00 78 1018.8
20240621030434 77 123 0.0 0.0 0.00 0.00 0.00 78 1018.8
20240621025935 77 123 0.0 0.0 0.00 0.00 0.00 78 1018.7
20240621025208 77 123 0.0 0.0 0.00 0.00 0.00 78 1018.7
20240621024706 78 123 0.0 0.0 0.00 0.00 0.00 77 1018.7
20240621024649 78 123 0.0 0.0 0.00 0.00 0.00 77 1018.7
20240621023925 78 123 0.0 0.0 0.00 0.00 0.00 77 1018.7
20240621023204 78 123 0.0 0.0 0.00 0.00 0.00 75 1018.7
20240621022703 78 123 0.0 0.0 0.00 0.00 0.00 75 1018.4
20240621022200 78 123 0.0 0.0 0.00 0.00 0.00 75 1018.4
20240621021657 78 123 0.0 0.0 0.00 0.00 0.00 75 1018.4
20240621021157 79 123 0.0 0.0 0.00 0.00 0.00 75 1018.4
20240621020655 79 123 0.0 0.0 0.00 0.00 0.00 74 1018.4
20240621020155 79 123 0.0 0.0 0.00 0.00 0.00 73 1018.4
20240621015659 79 123 0.0 0.0 0.00 0.00 0.00 72 1018.5
20240621015156 80 123 0.0 0.0 0.00 0.00 0.00 72 1018.5
20240621014656 80 123 0.0 0.0 0.00 0.00 0.00 72 1018.5
20240621014154 80 123 0.0 0.0 0.00 0.00 0.00 70 1018.4
20240621013655 80 123 0.0 0.0 0.00 0.00 0.00 70 1018.4
20240621013153 81 123 0.0 0.0 0.00 0.00 0.00 70 1018.4
20240621012914 81 123 0.0 0.0 0.00 0.00 0.00 69 1018.4
20240621012152 81 123 0.0 0.0 0.00 0.00 0.00 69 1018.4
20240621011651 82 123 0.0 0.0 0.00 0.00 0.00 68 1018.4
20240621011152 82 123 0.0 0.0 0.00 0.00 0.00 68 1018.4
20240621010652 82 123 0.0 0.0 0.00 0.00 0.00 69 1018.4
20240621010153 83 123 0.0 0.0 0.00 0.00 0.00 69 1018.4
20240621005653 83 123 0.0 0.0 0.00 0.00 0.00 69 1018.5
20240621005152 83 123 0.0 0.0 0.00 0.00 0.00 66 1018.5
20240621004653 83 123 0.0 0.0 0.00 0.00 0.00 70 1018.5
20240621004146 83 123 0.0 0.0 0.00 0.00 0.00 68 1018.6
20240621003647 83 123 0.0 0.0 0.00 0.00 0.00 65 1018.6
20240621003147 83 123 0.0 0.0 0.00 0.00 0.00 66 1018.6
20240621002647 83 123 0.0 0.0 0.00 0.00 0.00 67 1018.6
20240621002146 83 123 0.0 0.0 0.00 0.00 0.00 68 1018.6
20240621001647 83 123 0.0 1.0 0.00 0.00 0.00 67 1018.6
20240621001146 83 123 0.0 1.0 0.00 0.00 0.00 66 1018.5
20240621000645 83 123 0.0 0.0 0.00 0.00 0.00 68 1018.5
20240621000145 83 123 0.0 0.0 0.00 0.00 0.00 71 1018.5
20240620235648 83 123 0.0 0.0 0.00 0.00 0.00 66 1018.3
20240620235626 83 123 0.0 0.0 0.00 0.00 0.00 69 1018.3
20240620234641 83 123 0.0 0.0 0.00 0.00 0.00 65 1018.3
20240620234625 83 123 0.0 0.0 0.00 0.00 0.00 68 1018.5
20240620233640 83 123 0.0 0.0 0.00 0.00 0.00 67 1018.5
20240620233206 83 123 0.0 0.0 0.00 0.00 0.00 67 1018.6
20240620233134 83 123 0.0 0.0 0.00 0.00 0.00 66 1018.5
20240620232853 83 123 0.0 0.0 0.00 0.00 0.00 66 1018.6
20240620231625 83 123 0.0 0.0 0.00 0.00 0.00 62 1018.6
20240620231123 84 123 0.0 0.0 0.00 0.00 0.00 61 1018.7
20240620230624 84 123 0.0 0.0 0.00 0.00 0.00 64 1018.7
20240620230123 85 124 0.0 0.0 0.00 0.00 0.00 60 1018.7
20240620225625 85 124 0.0 0.0 0.00 0.00 0.00 58 1018.8
20240620225123 86 123 0.0 0.0 0.00 0.00 0.00 56 1018.8
20240620224622 86 123 0.0 0.0 0.00 0.00 0.00 57 1018.8
20240620224122 86 124 0.0 0.0 0.00 0.00 0.00 63 1019.2
20240620223846 85 124 0.0 0.0 0.00 0.00 0.00 62 1019.2
20240620223354 85 123 0.0 0.0 0.00 0.00 0.00 61 1019.2
20240620222620 84 123 0.0 0.0 0.00 0.00 0.00 64 1019.2
20240620222117 85 123 0.0 0.0 0.00 0.00 0.00 62 1019.2
20240620221617 85 123 0.0 0.0 0.00 0.00 0.00 62 1019.2
20240620221337 85 123 0.0 0.0 0.00 0.00 0.00 59 1019.3
20240620220616 85 119 0.0 0.0 0.00 0.00 0.00 61 1019.3
20240620220116 86 120 0.0 0.0 0.00 0.00 0.00 60 1019.3
20240620215615 85 120 0.0 0.0 0.00 0.00 0.00 57 1019.4
20240620215115 87 119 0.0 0.0 0.00 0.00 0.00 56 1019.4
20240620214840 87 140 0.0 0.0 0.00 0.00 0.00 58 1019.4
20240620214111 88 140 0.0 0.0 0.00 0.00 0.00 53 1019.4
20240620213612 87 140 0.0 0.0 0.00 0.00 0.00 56 1019.4
20240620213337 86 140 0.0 0.0 0.00 0.00 0.00 57 1019.4
20240620212611 85 140 0.0 1.0 0.00 0.00 0.00 60 1019.7
20240620212113 85 140 0.0 2.0 0.00 0.00 0.00 59 1019.7
20240620211612 86 140 0.0 2.0 0.00 0.00 0.00 54 1019.7
20240620211109 88 101 0.0 2.0 0.00 0.00 0.00 57 1019.8
20240620210609 89 273 0.0 0.0 0.00 0.00 0.00 57 1019.8
20240620210102 88 273 0.0 0.0 0.00 0.00 0.00 51 1019.8
20240620205556 88 109 0.0 0.0 0.00 0.00 0.00 53 1019.9
20240620205050 87 110 0.0 0.0 0.00 0.00 0.00 55 1019.9
20240620204549 88 224 0.0 0.0 0.00 0.00 0.00 51 1019.9
20240620204046 87 224 0.0 2.0 0.00 0.00 0.00 53 1020.1
20240620203807 87 138 0.0 2.0 0.00 0.00 0.00 55 1020.1
20240620203048 87 117 0.0 1.0 0.00 0.00 0.00 56 1020.1
20240620202547 88 209 0.0 0.0 0.00 0.00 0.00 55 1020.2
20240620202312 88 236 0.0 0.0 0.00 0.00 0.00 58 1020.2
20240620201548 88 134 0.0 0.0 0.00 0.00 0.00 57 1020.2
20240620201046 88 138 0.0 0.0 0.00 0.00 0.00 52 1020.3
20240620200548 88 122 0.0 0.0 0.00 0.00 0.00 56 1020.3
20240620200047 88 213 0.0 0.0 0.00 0.00 0.00 56 1020.3
20240620195548 88 214 0.0 0.0 0.00 0.00 0.00 56 1020.4
20240620195048 87 219 0.0 0.0 0.00 0.00 0.00 52 1020.4
20240620194548 87 86 0.0 0.0 0.00 0.00 0.00 54 1020.4
20240620194047 88 116 0.0 0.0 0.00 0.00 0.00 58 1020.4
20240620193546 88 71 0.0 0.0 0.00 0.00 0.00 56 1020.4
20240620193047 88 75 0.0 0.0 0.00 0.00 0.00 59 1020.4
20240620192551 87 75 0.0 0.0 0.00 0.00 0.00 57 1020.5
20240620192050 87 141 0.0 0.0 0.00 0.00 0.00 62 1020.5
20240620191549 87 148 0.0 0.0 0.00 0.00 0.00 55 1020.5
20240620191050 87 148 0.0 0.0 0.00 0.00 0.00 54 1020.7
20240620190549 87 242 0.0 0.0 0.00 0.00 0.00 57 1020.7
20240620190047 87 191 0.0 0.0 0.00 0.00 0.00 64 1020.7
20240620185548 87 172 0.0 0.0 0.00 0.00 0.00 60 1020.9
20240620185047 86 198 0.0 0.0 0.00 0.00 0.00 54 1020.9
20240620184546 86 221 0.0 0.0 0.00 0.00 0.00 54 1020.9
20240620184043 87 237 0.0 0.0 0.00 0.00 0.00 53 1021.0
20240620183808 87 173 0.0 0.0 0.00 0.00 0.00 58 1021.0
20240620183042 86 249 0.0 0.0 0.00 0.00 0.00 57 1021.0
20240620182544 87 249 0.0 0.0 0.00 0.00 0.00 61 1021.1
20240620182041 86 249 0.0 0.0 0.00 0.00 0.00 63 1021.1
20240620181541 86 250 0.0 0.0 0.00 0.00 0.00 59 1021.1
20240620181035 86 263 0.0 0.0 0.00 0.00 0.00 59 1021.2
20240620180529 85 191 0.0 0.0 0.00 0.00 0.00 63 1021.2
20240620180247 84 191 0.0 0.0 0.00 0.00 0.00 60 1021.2
20240620175517 84 143 0.0 0.0 0.00 0.00 0.00 62 1021.3
20240620175011 83 143 0.0 0.0 0.00 0.00 0.00 64 1021.3
20240620174506 83 143 0.0 0.0 0.00 0.00 0.00 60 1021.3
20240620174007 84 259 0.0 0.0 0.00 0.00 0.00 60 1021.5
20240620173506 84 259 0.0 0.0 0.00 0.00 0.00 63 1021.5
20240620173002 85 259 0.0 0.0 0.00 0.00 0.00 63 1021.5
20240620172729 85 240 0.0 0.0 0.00 0.00 0.00 63 1021.4
20240620171958 85 161 0.0 0.0 0.00 0.00 0.00 62 1021.4
20240620171459 85 161 0.0 0.0 0.00 0.00 0.00 59 1021.4
20240620170956 85 161 0.0 0.0 0.00 0.00 0.00 64 1021.4
20240620170457 85 175 0.0 0.0 0.00 0.00 0.00 62 1021.4
20240620170211 85 113 0.0 0.0 0.00 0.00 0.00 60 1021.4
20240620165718 84 195 0.0 0.0 0.00 0.00 0.00 60 1021.5
20240620165209 84 210 0.0 0.0 0.00 0.00 0.00 62 1021.5
20240620164451 84 210 0.0 0.0 0.00 0.00 0.00 64 1021.5
20240620163951 84 210 0.0 0.0 0.00 0.00 0.00 67 1021.5
20240620163448 84 202 0.0 0.0 0.00 0.00 0.00 62 1021.5
20240620162949 83 196 0.0 0.0 0.00 0.00 0.00 69 1021.6
20240620162443 82 196 0.0 0.0 0.00 0.00 0.00 66 1021.6
20240620161944 83 196 0.0 0.0 0.00 0.00 0.00 67 1021.6
20240620161444 82 186 0.0 0.0 0.00 0.00 0.00 66 1021.5
20240620160946 83 184 0.0 0.0 0.00 0.00 0.00 63 1021.5
20240620160446 83 223 0.0 1.0 0.00 0.00 0.00 66 1021.5
20240620155944 83 223 0.0 1.0 0.00 0.00 0.00 66 1021.5
20240620155444 83 171 0.0 1.0 0.00 0.00 0.00 67 1021.5
20240620154944 82 207 0.0 1.0 0.00 0.00 0.00 66 1021.5
20240620154446 82 201 0.0 1.0 0.00 0.00 0.00 72 1021.6
20240620153944 82 200 0.0 2.0 0.00 0.00 0.00 69 1021.6
20240620153445 82 111 0.0 2.0 0.00 0.00 0.00 72 1021.6
20240620152944 81 103 0.0 1.0 0.00 0.00 0.00 70 1021.6
20240620152445 81 124 0.0 0.0 0.00 0.00 0.00 71 1021.6
20240620151942 80 198 0.0 0.0 0.00 0.00 0.00 72 1021.6
20240620151442 81 199 0.0 0.0 0.00 0.00 0.00 72 1021.6
20240620150941 80 124 0.0 1.0 0.00 0.00 0.00 72 1021.6
20240620150440 81 152 0.0 1.0 0.00 0.00 0.00 72 1021.6
20240620145940 80 97 0.0 0.0 0.00 0.00 0.00 73 1021.6
20240620145440 80 149 0.0 0.0 0.00 0.00 0.00 71 1021.6
20240620145427 80 151 0.0 0.0 0.00 0.00 0.00 73 1021.6
20240620144439 80 151 0.0 0.0 0.00 0.00 0.00 74 1021.6
20240620143938 80 146 0.0 0.0 0.00 0.00 0.00 72 1021.6
20240620143439 79 146 0.0 0.0 0.00 0.00 0.00 73 1021.6
20240620143209 79 148 0.0 0.0 0.00 0.00 0.00 75 1021.5
20240620142437 78 144 0.0 0.0 0.00 0.00 0.00 79 1021.5
20240620141933 78 144 0.0 0.0 0.00 0.00 0.00 77 1021.5
20240620141434 78 140 0.0 0.0 0.00 0.00 0.00 78 1021.5
20240620141159 77 136 0.0 0.0 0.00 0.00 0.00 78 1021.5
20240620140436 77 156 0.0 0.0 0.00 0.00 0.00 80 1021.5
20240620135931 76 157 0.0 0.0 0.00 0.00 0.00 82 1021.4
20240620135433 76 134 0.0 0.0 0.00 0.00 0.00 84 1021.4
20240620134931 76 132 0.0 0.0 0.00 0.00 0.00 85 1021.4
20240620134446 75 132 0.0 0.0 0.00 0.00 0.00 86 1021.4
20240620133926 75 136 0.0 0.0 0.00 0.00 0.00 88 1021.4
20240620133426 74 136 0.0 0.0 0.00 0.00 0.00 89 1021.4
20240620133147 74 132 0.0 0.0 0.00 0.00 0.00 90 1021.3
20240620132425 73 130 0.0 0.0 0.00 0.00 0.00 90 1021.3
20240620131927 73 130 0.0 0.0 0.00 0.00 0.00 91 1021.3
20240620131425 73 128 0.0 0.0 0.00 0.00 0.00 91 1021.3
20240620130926 73 127 0.0 0.0 0.00 0.00 0.00 91 1021.3
20240620130427 72 127 0.0 0.0 0.00 0.00 0.00 91 1021.3
20240620125925 72 121 0.0 0.0 0.00 0.00 0.00 92 1021.1
20240620125649 72 120 0.0 0.0 0.00 0.00 0.00 93 1021.1
20240620124924 71 120 0.0 0.0 0.00 0.00 0.00 93 1021.1
20240620124646 71 120 0.0 0.0 0.00 0.00 0.00 93 1021.0
20240620123911 71 120 0.0 0.0 0.00 0.00 0.00 93 1021.0
20240620123631 71 120 0.0 0.0 0.00 0.00 0.00 93 1021.0
20240620122907 71 120 0.0 0.0 0.00 0.00 0.00 93 1021.0
20240620122406 71 120 0.0 0.0 0.00 0.00 0.00 93 1021.0
20240620121906 70 120 0.0 0.0 0.00 0.00 0.00 93 1021.0
20240620121402 70 120 0.0 0.0 0.00 0.00 0.00 93 1020.9
20240620120901 70 120 0.0 0.0 0.00 0.00 0.00 93 1020.9
20240620120620 70 120 0.0 0.0 0.00 0.00 0.00 93 1020.9
20240620120119 70 120 0.0 0.0 0.00 0.00 0.00 93 1020.6
20240620115355 70 120 0.0 0.0 0.00 0.00 0.00 93 1020.6
20240620114855 70 120 0.0 0.0 0.00 0.00 0.00 93 1020.6
20240620114353 70 120 0.0 0.0 0.00 0.00 0.00 93 1020.5
20240620114122 70 120 0.0 0.0 0.00 0.00 0.00 92 1020.5
20240620113350 70 120 0.0 0.0 0.00 0.00 0.00 92 1020.5
20240620112849 70 120 0.0 0.0 0.00 0.00 0.00 91 1020.4
20240620112350 70 120 0.0 0.0 0.00 0.00 0.00 91 1020.4
20240620112111 70 120 0.0 0.0 0.00 0.00 0.00 91 1020.4
20240620111340 70 120 0.0 0.0 0.00 0.00 0.00 92 1020.3
20240620110839 70 120 0.0 0.0 0.00 0.00 0.00 92 1020.3
20240620110341 70 120 0.0 0.0 0.00 0.00 0.00 92 1020.3
20240620105835 70 120 0.0 0.0 0.00 0.00 0.00 92 1020.1
20240620105333 70 120 0.0 0.0 0.00 0.00 0.00 92 1020.1
20240620104831 70 120 0.0 0.0 0.00 0.00 0.00 91 1020.1
20240620104547 70 120 0.0 0.0 0.00 0.00 0.00 91 1020.0
20240620103827 70 120 0.0 0.0 0.00 0.00 0.00 91 1020.0
20240620103328 70 120 0.0 0.0 0.00 0.00 0.00 91 1020.0
20240620103318 70 120 0.0 0.0 0.00 0.00 0.00 91 1020.0
20240620102327 70 120 0.0 0.0 0.00 0.00 0.00 91 1020.0
20240620101828 70 120 0.0 0.0 0.00 0.00 0.00 90 1020.0
20240620101550 70 120 0.0 0.0 0.00 0.00 0.00 90 1019.9
20240620100823 70 120 0.0 0.0 0.00 0.00 0.00 90 1019.9
20240620100321 70 120 0.0 0.0 0.00 0.00 0.00 90 1019.9
20240620100046 71 120 0.0 0.0 0.00 0.00 0.00 90 1019.8
20240620095314 71 120 0.0 0.0 0.00 0.00 0.00 90 1019.8
20240620094808 71 120 0.0 0.0 0.00 0.00 0.00 90 1019.8
20240620094305 71 120 0.0 0.0 0.00 0.00 0.00 90 1019.6
20240620093804 71 120 0.0 0.0 0.00 0.00 0.00 89 1019.6
20240620093304 71 120 0.0 0.0 0.00 0.00 0.00 89 1019.6
20240620092803 71 120 0.0 0.0 0.00 0.00 0.00 89 1019.6
20240620092301 71 120 0.0 0.0 0.00 0.00 0.00 90 1019.6
20240620091802 71 120 0.0 0.0 0.00 0.00 0.00 89 1019.6
20240620091300 71 120 0.0 0.0 0.00 0.00 0.00 89 1019.4
20240620090758 71 120 0.0 0.0 0.00 0.00 0.00 89 1019.4
20240620090257 71 120 0.0 0.0 0.00 0.00 0.00 89 1019.4
20240620085756 71 120 0.0 0.0 0.00 0.00 0.00 89 1019.4
20240620085518 71 120 0.0 0.0 0.00 0.00 0.00 88 1019.4
20240620084757 71 120 0.0 0.0 0.00 0.00 0.00 88 1019.4
20240620084255 71 120 0.0 0.0 0.00 0.00 0.00 88 1019.4
20240620083754 72 120 0.0 0.0 0.00 0.00 0.00 88 1019.4
20240620083254 72 120 0.0 0.0 0.00 0.00 0.00 87 1019.4
20240620082752 72 120 0.0 0.0 0.00 0.00 0.00 87 1019.4
20240620082253 72 120 0.0 0.0 0.00 0.00 0.00 87 1019.4
20240620082029 72 120 0.0 0.0 0.00 0.00 0.00 87 1019.4
20240620081252 72 120 0.0 0.0 0.00 0.00 0.00 87 1019.4
20240620080752 72 120 0.0 0.0 0.00 0.00 0.00 87 1019.4
20240620080508 72 120 0.0 0.0 0.00 0.00 0.00 87 1019.4
20240620075746 73 120 0.0 0.0 0.00 0.00 0.00 87 1019.4
20240620075518 73 120 0.0 0.0 0.00 0.00 0.00 87 1019.4
20240620074744 73 120 0.0 0.0 0.00 0.00 0.00 87 1019.4
20240620074245 73 120 0.0 0.0 0.00 0.00 0.00 86 1019.4
20240620073743 73 120 0.0 0.0 0.00 0.00 0.00 86 1019.4
20240620073240 73 120 0.0 0.0 0.00 0.00 0.00 86 1019.4
20240620073009 73 120 0.0 0.0 0.00 0.00 0.00 86 1019.5
20240620072239 73 120 0.0 0.0 0.00 0.00 0.00 86 1019.5
20240620071738 73 120 0.0 0.0 0.00 0.00 0.00 85 1019.5
20240620071238 73 120 0.0 0.0 0.00 0.00 0.00 85 1019.4
20240620070737 73 120 0.0 0.0 0.00 0.00 0.00 85 1019.4
20240620070456 73 120 0.0 0.0 0.00 0.00 0.00 85 1019.4
20240620070216 74 120 0.0 0.0 0.00 0.00 0.00 85 1019.4
20240620065234 74 120 0.0 0.0 0.00 0.00 0.00 85 1019.4
20240620064736 74 120 0.0 0.0 0.00 0.00 0.00 85 1019.4
20240620064235 74 120 0.0 0.0 0.00 0.00 0.00 85 1019.4
20240620063737 74 120 0.0 0.0 0.00 0.00 0.00 85 1019.4
20240620063233 74 120 0.0 0.0 0.00 0.00 0.00 85 1019.4
20240620062949 74 120 0.0 0.0 0.00 0.00 0.00 85 1019.5
20240620062228 74 120 0.0 0.0 0.00 0.00 0.00 84 1019.5
20240620061728 74 120 0.0 0.0 0.00 0.00 0.00 84 1019.5
20240620061228 74 120 0.0 0.0 0.00 0.00 0.00 84 1019.5
20240620060724 74 120 0.0 0.0 0.00 0.00 0.00 83 1019.5
20240620060223 74 120 0.0 0.0 0.00 0.00 0.00 83 1019.5
20240620060207 74 120 0.0 0.0 0.00 0.00 0.00 83 1019.4
20240620055219 74 120 0.0 0.0 0.00 0.00 0.00 83 1019.4
20240620054716 75 120 0.0 0.0 0.00 0.00 0.00 82 1019.4
20240620054216 75 120 0.0 0.0 0.00 0.00 0.00 82 1019.3
20240620053712 75 120 0.0 0.0 0.00 0.00 0.00 82 1019.3
20240620053210 75 120 0.0 0.0 0.00 0.00 0.00 82 1019.3
20240620052714 75 120 0.0 0.0 0.00 0.00 0.00 82 1019.3
20240620052208 75 120 0.0 0.0 0.00 0.00 0.00 82 1019.3
20240620051708 75 120 0.0 0.0 0.00 0.00 0.00 82 1019.3
20240620051206 75 120 0.0 0.0 0.00 0.00 0.00 82 1019.3
20240620050702 75 120 0.0 0.0 0.00 0.00 0.00 82 1019.3
20240620050200 75 119 0.0 0.0 0.00 0.00 0.00 81 1019.3
20240620045702 75 119 0.0 0.0 0.00 0.00 0.00 81 1019.3
20240620045201 76 119 0.0 0.0 0.00 0.00 0.00 81 1019.3
20240620044657 76 119 0.0 0.0 0.00 0.00 0.00 81 1019.3
20240620044157 76 119 0.0 0.0 0.00 0.00 0.00 81 1019.3
20240620043657 76 117 0.0 0.0 0.00 0.00 0.00 80 1019.3
20240620043419 76 117 0.0 0.0 0.00 0.00 0.00 81 1019.3
20240620042654 76 117 0.0 0.0 0.00 0.00 0.00 80 1019.3
20240620042155 76 117 0.0 0.0 0.00 0.00 0.00 81 1019.3
20240620041656 76 117 0.0 0.0 0.00 0.00 0.00 80 1019.3
20240620041153 76 119 0.0 0.0 0.00 0.00 0.00 80 1019.2
20240620040650 76 119 0.0 0.0 0.00 0.00 0.00 80 1019.2
20240620040151 76 119 0.0 0.0 0.00 0.00 0.00 80 1019.2
20240620035905 76 119 0.0 0.0 0.00 0.00 0.00 80 1018.9
20240620035140 76 119 0.0 0.0 0.00 0.00 0.00 80 1018.9
20240620034641 76 119 0.0 0.0 0.00 0.00 0.00 80 1018.9
20240620034138 76 119 0.0 0.0 0.00 0.00 0.00 80 1018.8
20240620033638 76 119 0.0 0.0 0.00 0.00 0.00 80 1018.8
20240620033137 76 119 0.0 0.0 0.00 0.00 0.00 79 1018.8
20240620032902 76 119 0.0 0.0 0.00 0.00 0.00 79 1018.7